User: anonymous   Login
Location: Columbia
(38.9520°N, 92.3340°W)
Time: 13:57:29
(UTC-05:00)
Language:

Iridium 22 - Orbit

View from above orbital plane
View from above orbital plane
View from above satellite
View from above satellite

Ground track
Ground track

The orbit data is extracted from the following two-line orbital elements,

1 24907U 97043E   14298.11982860  .00000414  00000-0  14071-3 0   282
2 24907 086.3938 299.8137 0002223 105.2634 320.6377 14.34219513899355
Epoch (UTC): 25 October 2014 02:52:33
Eccentricity: 0.0002223
inclination: 86.3938°
perigee height: 776 km
apogee height: 779 km
right ascension of ascending node: 299.8137°
argument of perigee: 105.2634°
revolutions per day: 14.34219513
mean anomaly at epoch: 320.6377°
orbit number at epoch: 89935

The dashed part of the orbit path shows where the satellite is in the earth's shadow,  

DLR